,

(GMT )
Karlstad

Weather History for ESSQ - April, 2013

Change the Weather History Date:

Thursday, April 11, 2013

  Actual Average Record
Temperature  
Mean Temperature 35 °F -  
Max Temperature 44 °F - - ()
Min Temperature 26 °F - - ()
Degree Days  
Heating Degree Days 30    
Moisture  
Dew Point 23 °F    
Average Humidity 53    
Maximum Humidity 86    
Minimum Humidity 25    
Precipitation  
Precipitation 0.00 in - - ()
Sea Level Pressure  
Sea Level Pressure 29.88 in    
Wind  
Wind Speed 7 mph ()    
Max Wind Speed 11 mph    
Max Gust Speed -    
T = Trace of Precipitation, MM = Missing Value Source: Averaged Metar Reports

Daily Weather History Graph

Daily Weather History Graph

Search for Another Location

Airport or City:

Trip Planner

Search our weather history database for the weather conditions in past years. The results will help you decide how hot, cold, wet, or windy it might be!

Date:

Astronomy

Apr. 11, 2013 Rise Set
Actual Time 6:03 AM CEST 8:13 PM CEST
Civil Twilight 5:19 AM CEST 8:58 PM CEST
Nautical Twilight 4:22 AM CEST 9:55 PM CEST
Astronomical Twilight 3:09 AM CEST 11:10 PM CEST
Moon 6:07 AM CEST (4/11) 9:57 PM CEST (4/11)
Length of Visible Light 15h 39m
Length of Day
14h 10m
New Moon, 1% of the Moon is Illuminated
Apr 11
New Moon
Apr 18
First Quarter
Apr 25
Full
May 2
Last Quarter
May 10
New

Hourly Weather History & Observations

Time (CEST) Temp. Dew Point Humidity Pressure Visibility Wind Dir Wind Speed Gust Speed Precip Events Conditions
12:00 AM 28 °F 22 °F 70% 29.99 in 31 mi NE 6.7 mph - -  
1:00 AM 27 °F 21 °F 70% 29.99 in 31 mi ENE 6.7 mph - -  
2:00 AM 27 °F 22 °F 73% 29.98 in 31 mi ENE 4.5 mph - -   Scattered Clouds
3:00 AM 27 °F 24 °F 83% 29.97 in 31 mi ENE 6.7 mph - -   Scattered Clouds
6:00 AM 28 °F 26 °F 86% 29.94 in 28 mi ENE 6.7 mph - -   Overcast
7:00 AM 29 °F 25 °F 80% 29.93 in 28 mi ENE 8.9 mph - -   Scattered Clouds
8:00 AM 29 °F 24 °F 75% 29.93 in 28 mi ENE 6.7 mph - -   Scattered Clouds
9:00 AM 32 °F 24 °F 63% 29.91 in 22 mi ENE 8.9 mph - -  
10:00 AM 35 °F 22 °F 48% 29.91 in 25 mi ENE 8.9 mph - -  
12:00 PM 38 °F 22 °F 40% 29.88 in 25 mi East 11.2 mph - -   Partly Cloudy
1:00 PM 40 °F 21 °F 33% 29.86 in 31 mi ESE 8.9 mph - -   Mostly Cloudy
2:00 PM 40 °F 20 °F 30% 29.86 in 28 mi ESE 6.7 mph - -   Overcast
3:00 PM 42 °F 20 °F 28% 29.84 in 28 mi ESE 8.9 mph - -   Overcast
4:00 PM 43 °F 19 °F 25% 29.82 in 28 mi ESE 8.9 mph - -   Scattered Clouds
6:00 PM 42 °F 21 °F 29% 29.79 in 28 mi East 11.2 mph - -   Partly Cloudy
7:00 PM 41 °F 21 °F 32% 29.79 in 31 mi ESE 8.9 mph - -   Mostly Cloudy
8:00 PM 40 °F 23 °F 37% 29.79 in 31 mi East 6.7 mph - -   Overcast
9:00 PM 38 °F 24 °F 43% 29.80 in 31 mi East 6.7 mph - -   Overcast
10:00 PM 37 °F 27 °F 56% 29.80 in 28 mi ESE 6.7 mph - -   Overcast